Regional Weather Roundup
Issued by NWS

Home | Current Version | Previous Version | Graphics & Text | Print | Product List | Glossary On
Versions: 1 2 3 4 5 6 7 8 9 10 11 12 13 14 15 16 17 18 19 20 21 22 23 24 25 26 27 28 29 30 31 32 33 34 35 36 37 38 39 40 41 42 43 44 45 46 47 48 49 50
000
ASUS43 KMKX 021900
RWRWI

WISCONSIN REGIONAL WEATHER ROUNDUP
NATIONAL WEATHER SERVICE MILWAUKEE/SULLIVAN WI
200 PM CDT THU JUL 02 2015

NOTE: "FAIR" INDICATES FEW OR NO CLOUDS BELOW 12,000 FEET WITH NO
SIGNIFICANT WEATHER AND/OR OBSTRUCTIONS TO VISIBILITY.

WIZ001-002-006>008-014>016-023>028-022000-
NORTHWEST WISCONSIN

CITY           SKY/WX    TMP DP  RH WIND       PRES   REMARKS
SUPERIOR ARPT  NOT AVBL
ASHLAND        SUNNY     76  58  53 SW9       30.00F
HAYWARD        SUNNY     74  51  44 SW7       30.03F
SIREN          NOT AVBL
CUMBERLAND     NOT AVBL
RICE LAKE      NOT AVBL
CHETEK         NOT AVBL
LADYSMITH      NOT AVBL
EAU CLAIRE     NOT AVBL
MENOMONIE      NOT AVBL
NEW RICHMOND   NOT AVBL
OSCEOLA        NOT AVBL
$$

WIZ003>005-009-010-017-018-022000-
NORTH CENTRAL WISCONSIN

CITY           SKY/WX    TMP DP  RH WIND       PRES   REMARKS
MANITOWISH WTR NOT AVBL
ARBOR VITAE    NOT AVBL
WOODRUFF       NOT AVBL
RHINELANDER    SUNNY     73  49  42 MISG      30.05F
EAGLE RIVER    NOT AVBL
LAND O LAKES   NOT AVBL
PHILLIPS       NOT AVBL
TOMAHAWK       NOT AVBL
MEDFORD        NOT AVBL
MERRILL        NOT AVBL
$$

WIZ029-030-035-036-043>047-022000-
CENTRAL WISCONSIN

CITY           SKY/WX    TMP DP  RH WIND       PRES   REMARKS
WAUSAU         SUNNY     74  44  34 SE10      30.03F
MOSINEE        SUNNY     72  48  43 VRB6      30.06S
MARSHFIELD     SUNNY     72  49  44 SE10      30.04F
STEVENS POINT  NOT AVBL
WAUPACA        NOT AVBL
WAUTOMA        NOT AVBL
WISC RAPIDS    SUNNY     73  44  35 VRB5      30.05F
CAMP DOUGLAS   NOT AVBL
$$

WIZ011>013-019>022-031-037>040-048>050-022000-
NORTHEAST WISCONSIN

CITY           SKY/WX    TMP DP  RH WIND       PRES   REMARKS
ANTIGO         NOT AVBL
SHAWANO        NOT AVBL
OCONTO         NOT AVBL
STURGEON BAY   SUNNY     66  46  48 E7        30.09S
GREEN BAY      SUNNY     72  50  45 NE8       30.05F
MANITOWOC      NOT AVBL
APPLETON       SUNNY     70  45  40 E7        30.05F
CLINTONVILLE   NOT AVBL
OSHKOSH        SUNNY     70  48  45 NE8       30.04F
$$

WIZ032>034-041-042-053>061-022000-
SOUTHWEST WISCONSIN

CITY           SKY/WX    TMP DP  RH WIND       PRES   REMARKS
LA CROSSE      SUNNY     74  51  44 VRB6      30.01F
SPARTA         NOT AVBL
VIROQUA        NOT AVBL
BOSCOBEL       MOSUNNY   72  52  49 NE8       30.02S
PRAIRIE DU CHI NOT AVBL
PLATTEVILLE    NOT AVBL
$$

WIZ056-057-062-063-064-067-068-022000-
SOUTH CENTRAL WISCONSIN

CITY           SKY/WX    TMP DP  RH WIND       PRES   REMARKS
REEDSBURG      NOT AVBL
BARABOO/DELLS  NOT AVBL
LONE ROCK      NOT AVBL
MINERAL POINT  NOT AVBL
MADISON        MOSUNNY   69  47  45 E5        30.02F
MIDDLETON      NOT AVBL
WATERTOWN      NOT AVBL
MONROE         NOT AVBL
JANESVILLE     SUNNY     72  48  43 NE9       30.01F
$$

WIZ051-052-058>065-066-070>072-022000-
SOUTHEAST WISCONSIN

CITY           SKY/WX    TMP DP  RH WIND       PRES   REMARKS
MILWAUKEE      MOSUNNY   64  51  62 NE13      30.04F
WAUKESHA       SUNNY     66  45  45 NE10      30.04F
MILWAUKEE/TIMM SUNNY     64  46  52 NE8       30.05S
RACINE         SUNNY     64  50  60 N9        30.05F
BURLINGTON     NOT AVBL
KENOSHA        SUNNY     67  52  58 E9        30.03S
FOND DU LAC    SUNNY     71  47  42 E9        30.03F
SHEBOYGAN      SUNNY     67  49  52 NE7       30.05F
WEST BEND      NOT AVBL
JUNEAU         NOT AVBL
$$

LSZ147-162-022000-
LAKE SUPERIOR

STATION/POSITION TIME  TEMP    WIND        PRES    WAVE
                       AIR SEA DIR/SP/G            HT/PER
                 (UTC) (F)     (DEG/KT/KT) (MB)    (FT/S)
W MID LAKE BUOY  1750   48 39  180/  6/  6 1016.0F   0
DEVILS ISLAND    1800   64     220/  6/  8 1015.7F
SAXON HARBOR     1840   75      CALM  /  5 1015.6F
$$

LMZ867-665-643>646-022000-
LAKE MICHIGAN

STATION/POSITION TIME  TEMP    WIND        PRES    WAVE
                       AIR SEA DIR/SP/G            HT/PER
                 (UTC) (F)     (DEG/KT/KT) (MB)    (FT/S)
CHAMBERS ISLAND  1800   69      10/  3/  3 1017.9F
N MID LAKE BUOY  1750   52 49  110/  2/  2 1018.5F   0
NORTHPORT PIER   1800   60     100/  4/  5 1017.9F
SISTER BAY       1814   67     360/  9/ 11   N/A
ALGOMA LAKESHORE 1810           90/  7/  8   N/A
KEWAUNEE LAKESHO 1800   61      60/  4/  7 1017.8F
SHEBOYGAN LAKESH 1800   56      10/ 10/ 11 1018.4F
PORT WASHINGTON  1840   60      50/  7/ 11 1018.3F
ATWATER BUOY     1800   57      20/ 10/ 12 1018.8F
MILWAUKEE LAKESH 1800   57      40/ 11/ 12   N/A
KENOSHA   LAKESH 1800   56      30/ 14/ 16 1016.9F
$$

TC  - TEMPERATURE IN CELSIUS
VSB - VISIBILITY IN STATUTE MILES
WCI - WIND CHILL INDEX
HX  - HEAT INDEX




USA.gov is the U.S. government's official web portal to all federal, state and local government web resources and services.